[[{"header":{"parameterUnit":"m.s-1","parameterCategory":1,"la1":30.2991,"la2":30.254,"lo1":-89.0895,"lo2":-89.0444,"dy":0.0017,"dx":0.0017,"nx":28,"ny":28,"refTime":"2023-10-11T21:00:00:Z","depth":0,"parameterNumber":2,"parameterNumberName":"U-component_of_WINDS"},"data":[0,0,0,0,0,0,0,0,0,0,0,0,0,0,0,0,0,0,0,0,0,0,0,0,0,0,0,0,0,0,0,0,0,0,0,0,0,0,0,0,0,0,0,0,0,0,0,0,0,0,0,0,0,0,0,0,0,0,-0.4327,-0.4328,0,-0.4349,-0.435,-0.435,-0.4333,-0.4332,-0.4332,-0.4331,-0.4354,-0.4355,-0.4357,0,0,0,0,0,0,0,0,0,0,0,0,0,-0.4271,-0.4272,-0.4327,-0.4328,-0.4328,-0.4349,-0.435,-0.435,-0.4333,-0.4332,-0.4332,-0.4331,-0.4354,-0.4355,-0.4357,0,0,0,0,0,0,0,0,0,0,0,0,0,-0.4294,-0.4272,-0.4327,-0.4322,-0.4322,-0.4349,-0.435,-0.435,-0.4334,-0.4332,-0.4331,-0.433,-0.4353,-0.4355,-0.4357,-0.4391,0,0,-0.4363,-0.4364,0,0,0,0,0,0,0,0,-0.4293,-0.4297,-0.4323,-0.4323,-0.4322,-0.4337,-0.4338,-0.4364,-0.4334,-0.4329,-0.4331,-0.433,-0.435,-0.4352,-0.4358,-0.4392,-0.4393,-0.4363,-0.4364,-0.4365,-0.4366,0,0,0,0,0,0,0,-0.4292,-0.4296,-0.4336,-0.4323,-0.4323,-0.4319,-0.4321,-0.4343,-0.4345,-0.4329,-0.4328,-0.4331,-0.4349,-0.4356,-0.4359,-0.4393,-0.4363,-0.4365,-0.4366,-0.4367,-0.4456,-0.4457,0,0,0,0,0,0,-0.429,-0.4294,-0.4335,-0.4337,-0.4305,-0.4321,-0.4323,-0.4334,-0.4345,-0.4346,-0.4332,-0.433,-0.4354,-0.4356,-0.4359,-0.44,-0.4365,-0.4367,-0.4368,-0.4455,-0.4456,-0.4457,0,0,0,0,0,0,-0.4289,-0.4294,-0.4335,-0.4315,-0.432,-0.4323,-0.4335,-0.4335,-0.4342,-0.4347,-0.4347,-0.4339,-0.4353,-0.4357,-0.4383,-0.44,-0.4368,-0.437,-0.4453,-0.4455,-0.4457,-0.4481,0,0,0,0,0,0,-0.4288,-0.4294,-0.4307,-0.4316,-0.4321,-0.4358,-0.4336,-0.4336,-0.4345,-0.4343,-0.4353,-0.4354,-0.4352,-0.438,-0.4385,-0.4403,-0.4371,-0.4452,-0.4454,-0.4456,-0.4479,-0.4484,-0.4488,0,0,0,0,0,-0.4286,-0.4313,-0.4308,-0.4313,-0.4337,-0.4359,-0.4362,-0.4359,-0.4347,-0.436,-0.4363,-0.4354,-0.4398,-0.4383,-0.4388,-0.4407,-0.445,-0.4453,-0.4456,-0.4477,-0.4483,-0.4487,0,0,0,0,0,0,-0.4306,-0.4314,-0.4308,-0.4339,-0.4348,-0.4356,-0.4372,-0.4366,-0.4379,-0.4376,-0.4372,-0.4375,-0.4403,-0.4407,-0.4391,-0.444,-0.4422,-0.4426,-0.4436,-0.4442,-0.4446,-0.4445,-0.4373,0,0,0,0,0,-0.4314,-0.4331,-0.4337,-0.4364,-0.4369,-0.437,-0.4379,-0.4376,-0.4386,-0.439,-0.4395,-0.4405,-0.4421,-0.4431,-0.4446,-0.4479,-0.4481,-0.4494,-0.4499,-0.4502,-0.4506,-0.4524,-0.453,-0.4466,-0.4466,-0.4466,0,0,-0.4331,-0.4338,-0.4349,-0.4368,-0.4375,-0.4393,-0.4373,-0.4393,-0.4406,-0.4393,-0.4418,-0.4422,-0.4433,-0.4463,-0.4476,-0.4467,-0.4524,-0.4506,-0.4508,-0.451,-0.4527,-0.4533,-0.4538,-0.4468,-0.4468,-0.4467,0,0,-0.4371,-0.4378,-0.4401,-0.4408,-0.4419,-0.4419,-0.4425,-0.4433,-0.4435,-0.4461,-0.4451,-0.4467,-0.4494,-0.4502,-0.451,-0.4553,-0.4545,-0.4557,-0.4581,-0.4598,-0.4603,-0.4608,-0.4623,-0.4629,-0.4561,-0.4561,-0.4561,0,-0.4391,-0.4417,-0.4413,-0.4434,-0.4442,-0.4431,-0.4454,-0.4461,-0.4477,-0.4483,-0.4473,-0.4507,-0.4514,-0.4545,-0.4556,-0.4562,-0.4568,-0.4557,-0.4603,-0.4607,-0.4611,-0.4626,-0.4632,-0.4562,-0.4562,-0.4562,-0.4562,0,-0.4441,-0.446,-0.4477,-0.4492,-0.4502,-0.4524,-0.4523,-0.4535,-0.453,-0.4532,-0.4558,-0.4565,-0.4581,-0.4588,-0.4585,-0.462,-0.4614,-0.4603,-0.4585,-0.4619,-0.4633,-0.4638,-0.4565,-0.4564,-0.4564,-0.4563,0,0,-0.4496,-0.4508,-0.4514,-0.4521,-0.4531,-0.4545,-0.4566,-0.4582,-0.4592,-0.4603,-0.462,-0.4644,-0.4634,-0.4643,-0.464,-0.4655,-0.4689,-0.4643,-0.4643,-0.4651,-0.4728,-0.4736,-0.4743,-0.4683,-0.4684,-0.4685,-0.4727,0,-0.4537,-0.4573,-0.457,-0.4605,-0.4622,-0.4611,-0.4629,-0.4638,-0.464,-0.4654,-0.4656,-0.4673,-0.4659,-0.4664,-0.4679,-0.4682,-0.4704,-0.4678,-0.47,-0.4701,-0.4699,-0.475,-0.4759,-0.4798,-0.4733,-0.4733,-0.4734,0,-0.459,-0.4602,-0.4638,-0.4646,-0.4653,-0.467,-0.4684,-0.4698,-0.4708,-0.4708,-0.4717,-0.4712,-0.4733,-0.4714,-0.4743,-0.4726,-0.4734,-0.4737,-0.4739,-0.4741,-0.472,-0.4755,-0.4811,-0.4817,-0.4743,-0.4742,-0.4741,0,-0.4626,-0.4652,-0.4677,-0.4683,-0.4693,-0.4705,-0.4709,-0.4718,-0.4727,-0.474,-0.4746,-0.476,-0.4768,-0.478,-0.4778,-0.4765,-0.4808,-0.4789,-0.481,-0.481,-0.482,-0.4819,-0.4879,-0.4824,-0.4824,-0.4824,-0.4824,0,-0.4673,-0.4696,-0.4694,-0.4709,-0.4734,-0.473,-0.4755,-0.4759,-0.4766,-0.4782,-0.4773,-0.4789,-0.4785,-0.48,-0.4799,-0.4824,-0.4828,-0.4829,-0.4828,-0.483,-0.483,-0.4836,-0.4833,-0.4826,-0.4825,-0.4825,-0.4825,0,-0.4718,-0.4718,-0.4745,-0.4752,-0.4754,-0.4772,-0.4778,-0.4793,-0.4794,-0.4814,-0.4819,-0.482,-0.4838,-0.4837,-0.4857,-0.4856,-0.4886,-0.4882,-0.4883,-0.4883,-0.4903,-0.4902,-0.4969,-0.4978,-0.4917,-0.4918,-0.4919,0,-0.4748,-0.4766,-0.4774,-0.4784,-0.479,-0.4806,-0.4816,-0.4812,-0.4823,-0.4834,-0.4848,-0.4864,-0.4877,-0.4906,-0.4909,-0.4924,-0.4921,-0.4943,-0.4923,-0.4924,-0.4922,-0.4921,-0.4923,-0.4948,-0.4948,-0.4949,-0.4949,0,-0.4802,-0.4801,-0.4815,-0.4829,-0.4841,-0.4852,-0.4862,-0.4871,-0.4868,-0.488,-0.4898,-0.4908,-0.4928,-0.4945,-0.4959,-0.4964,-0.4956,-0.4955,-0.4961,-0.4963,-0.4963,-0.4964,-0.4895,-0.4954,-0.4954,-0.4953,-0.4953,-0.4953,-0.4841,-0.4856,-0.4864,-0.488,-0.4888,-0.4897,-0.4911,-0.4914,-0.4928,-0.4944,-0.4941,-0.4961,-0.497,-0.4988,-0.4994,-0.501,-0.5002,-0.501,-0.5012,-0.5014,-0.5017,-0.496,-0.5012,-0.5012,-0.5012,-0.5012,-0.5012,0,-0.4894,-0.4899,-0.4914,-0.4928,-0.4941,-0.4932,-0.4943,-0.4954,-0.4972,-0.498,-0.4993,-0.5014,-0.503,-0.5033,-0.5049,-0.5061,-0.5058,-0.5065,-0.5064,-0.5066,-0.5023,-0.5017,-0.5067,-0.5067,-0.5067,-0.5067,-0.5067,-0.5067,-0.4924,-0.4949,-0.4949,-0.4977,-0.4981,-0.5001,-0.5007,-0.5016,-0.5023,-0.5046,-0.5059,-0.5062,-0.5068,-0.5084,-0.5098,-0.5099,-0.5106,-0.5114,-0.5114,-0.5074,-0.5069,-0.5063,-0.5058,-0.5116,-0.5116,-0.5155,-0.5156,-0.5156]},{"header":{"parameterUnit":"m.s-1","parameterCategory":1,"la1":30.2991,"la2":30.254,"lo1":-89.0895,"lo2":-89.0444,"dy":0.0017,"dx":0.0017,"nx":28,"ny":28,"refTime":"2023-10-11T21:00:00:Z","depth":0,"parameterNumber":3,"parameterNumberName":"V-component_of_WINDS"},"data":[0,0,0,0,0,0,0,0,0,0,0,0,0,0,0,0,0,0,0,0,0,0,0,0,0,0,0,0,0,0,0,0,0,0,0,0,0,0,0,0,0,0,0,0,0,0,0,0,0,0,0,0,0,0,0,0,0,0,-1.9428,-1.9428,0,-1.9413,-1.9412,-1.9412,-1.9374,-1.9374,-1.9373,-1.9372,-1.9357,-1.9357,-1.9357,0,0,0,0,0,0,0,0,0,0,0,0,0,-1.9427,-1.9427,-1.9428,-1.9428,-1.9428,-1.9413,-1.9412,-1.9412,-1.9375,-1.9374,-1.9373,-1.9372,-1.9357,-1.9357,-1.9357,0,0,0,0,0,0,0,0,0,0,0,0,0,-1.9421,-1.9427,-1.9428,-1.9407,-1.9405,-1.9413,-1.9412,-1.9412,-1.9375,-1.9374,-1.9372,-1.9371,-1.9357,-1.9357,-1.9357,-1.9384,0,0,-1.9359,-1.9359,0,0,0,0,0,0,0,0,-1.9421,-1.9421,-1.9411,-1.9409,-1.9406,-1.9394,-1.9406,-1.9403,-1.9375,-1.9386,-1.9372,-1.9371,-1.937,-1.937,-1.9369,-1.9384,-1.9383,-1.9359,-1.9359,-1.936,-1.936,0,0,0,0,0,0,0,-1.9422,-1.9422,-1.9422,-1.941,-1.9408,-1.9399,-1.9397,-1.9405,-1.9385,-1.9385,-1.9382,-1.9381,-1.9369,-1.9369,-1.9369,-1.9383,-1.9359,-1.9359,-1.936,-1.936,-1.9419,-1.942,0,0,0,0,0,0,-1.9425,-1.9422,-1.9423,-1.9422,-1.9411,-1.94,-1.9398,-1.9399,-1.9385,-1.9382,-1.9382,-1.9379,-1.9369,-1.9368,-1.9368,-1.9399,-1.936,-1.936,-1.936,-1.9418,-1.9419,-1.9421,0,0,0,0,0,0,-1.9425,-1.9426,-1.9423,-1.9421,-1.942,-1.9401,-1.9404,-1.94,-1.9399,-1.9383,-1.9379,-1.9386,-1.9368,-1.9367,-1.9381,-1.9398,-1.936,-1.9361,-1.9416,-1.9418,-1.942,-1.946,0,0,0,0,0,0,-1.9425,-1.9426,-1.9435,-1.9422,-1.942,-1.9436,-1.9405,-1.94,-1.94,-1.9397,-1.9385,-1.9382,-1.9367,-1.938,-1.9381,-1.9398,-1.9361,-1.9415,-1.9417,-1.9419,-1.9457,-1.9463,-1.9469,0,0,0,0,0,-1.9425,-1.9448,-1.9436,-1.9436,-1.9432,-1.9437,-1.9436,-1.9418,-1.9402,-1.9412,-1.9401,-1.9382,-1.9396,-1.9382,-1.9383,-1.94,-1.9413,-1.9416,-1.9419,-1.9455,-1.9462,-1.9468,0,0,0,0,0,0,-1.9464,-1.9445,-1.9432,-1.9451,-1.9446,-1.9431,-1.9442,-1.9426,-1.9426,-1.9423,-1.94,-1.9398,-1.9415,-1.9408,-1.9393,-1.9425,-1.9402,-1.9405,-1.9428,-1.9435,-1.9441,-1.9442,-1.9362,0,0,0,0,0,-1.9475,-1.948,-1.9463,-1.9481,-1.9479,-1.9461,-1.9463,-1.9449,-1.9443,-1.9441,-1.9431,-1.9426,-1.9429,-1.9432,-1.9434,-1.9456,-1.9454,-1.9469,-1.9474,-1.9479,-1.9482,-1.9494,-1.95,-1.943,-1.943,-1.943,0,0,-1.9497,-1.9487,-1.9492,-1.9489,-1.9483,-1.9489,-1.946,-1.9468,-1.9472,-1.9442,-1.9454,-1.9447,-1.944,-1.9459,-1.9466,-1.9454,-1.9501,-1.9482,-1.9486,-1.9487,-1.9497,-1.9504,-1.951,-1.9432,-1.9432,-1.9431,0,0,-1.954,-1.9533,-1.9547,-1.9542,-1.9535,-1.9523,-1.9526,-1.9514,-1.9508,-1.9519,-1.9497,-1.9503,-1.9508,-1.9504,-1.9503,-1.9546,-1.9529,-1.9547,-1.9576,-1.9588,-1.9594,-1.9599,-1.9614,-1.962,-1.955,-1.955,-1.955,0,-1.9568,-1.9577,-1.9557,-1.9566,-1.9565,-1.9539,-1.9553,-1.955,-1.9543,-1.9543,-1.953,-1.9537,-1.953,-1.9547,-1.9558,-1.9558,-1.9561,-1.9548,-1.9595,-1.9599,-1.9603,-1.9618,-1.9624,-1.9553,-1.9552,-1.9552,-1.9552,0,-1.9612,-1.9618,-1.9631,-1.9625,-1.9626,-1.9638,-1.962,-1.9623,-1.961,-1.96,-1.9612,-1.9604,-1.9604,-1.9607,-1.9594,-1.9622,-1.9615,-1.9598,-1.9574,-1.9613,-1.9626,-1.9631,-1.9556,-1.9555,-1.9554,-1.9554,0,0,-1.9679,-1.9662,-1.9667,-1.9664,-1.9654,-1.9659,-1.967,-1.9669,-1.9673,-1.9669,-1.9678,-1.9684,-1.9669,-1.9668,-1.9654,-1.9664,-1.9699,-1.9646,-1.9646,-1.9657,-1.9731,-1.9744,-1.9751,-1.9688,-1.9689,-1.969,-1.9732,0,-1.972,-1.9737,-1.972,-1.9741,-1.9747,-1.9722,-1.9731,-1.9727,-1.9717,-1.9721,-1.9711,-1.9716,-1.9695,-1.9694,-1.9703,-1.9693,-1.9714,-1.969,-1.9697,-1.9697,-1.9699,-1.9757,-1.9771,-1.9811,-1.9737,-1.9738,-1.9738,0,-1.977,-1.9768,-1.979,-1.9779,-1.9781,-1.979,-1.9788,-1.9792,-1.9786,-1.9779,-1.9778,-1.9762,-1.9772,-1.9749,-1.9763,-1.9747,-1.9749,-1.9745,-1.9746,-1.9746,-1.972,-1.9759,-1.9823,-1.9829,-1.9746,-1.9746,-1.9745,0,-1.9817,-1.982,-1.9834,-1.9832,-1.982,-1.9827,-1.9822,-1.9814,-1.9816,-1.9815,-1.9815,-1.9816,-1.9816,-1.9817,-1.9801,-1.9786,-1.9818,-1.9793,-1.9813,-1.9813,-1.9821,-1.982,-1.9886,-1.9822,-1.9821,-1.9821,-1.9821,0,-1.9864,-1.9878,-1.9855,-1.9863,-1.9879,-1.9859,-1.9875,-1.9868,-1.9862,-1.9869,-1.9847,-1.9854,-1.9833,-1.9838,-1.9826,-1.984,-1.984,-1.9835,-1.9832,-1.9837,-1.9838,-1.9838,-1.9835,-1.9823,-1.9823,-1.9822,-1.9822,0,-1.9919,-1.9904,-1.9917,-1.9904,-1.9901,-1.9913,-1.9902,-1.991,-1.9899,-1.9908,-1.9909,-1.9893,-1.9898,-1.9882,-1.9885,-1.9877,-1.9897,-1.9889,-1.9899,-1.9897,-1.9917,-1.9916,-1.9985,-1.9994,-1.9924,-1.9925,-1.9925,0,-1.995,-1.9961,-1.9949,-1.9952,-1.9948,-1.9953,-1.9954,-1.9936,-1.9938,-1.9932,-1.9941,-1.9944,-1.9945,-1.9954,-1.9942,-1.9944,-1.9936,-1.996,-1.9936,-1.9942,-1.9937,-1.9937,-1.9938,-1.9966,-1.9966,-1.9967,-1.9968,0,-2.0008,-2.0,-2.0002,-2.0002,-2.0004,-2.0003,-2.0001,-2.0005,-1.9985,-1.9988,-1.9993,-1.9994,-1.9996,-2.0,-1.9999,-1.9994,-1.9978,-1.9975,-1.998,-1.9986,-1.9991,-1.9989,-1.9913,-1.9974,-1.9973,-1.9973,-1.9972,-1.9972,-2.0052,-2.006,-2.0053,-2.0057,-2.0053,-2.0052,-2.0058,-2.0049,-2.0052,-2.0053,-2.0042,-2.0049,-2.0043,-2.0041,-2.0038,-2.0043,-2.0032,-2.0039,-2.004,-2.0042,-2.0046,-1.999,-2.0043,-2.0043,-2.0042,-2.0042,-2.0042,0,-2.0109,-2.0103,-2.0106,-2.0104,-2.0107,-2.0091,-2.0088,-2.0092,-2.0098,-2.0094,-2.0096,-2.0101,-2.0105,-2.0094,-2.0096,-2.0102,-2.0095,-2.0104,-2.0103,-2.0102,-2.0056,-2.0052,-2.011,-2.011,-2.011,-2.011,-2.011,-2.011,-2.0138,-2.0152,-2.0143,-2.0155,-2.0149,-2.0156,-2.0156,-2.0154,-2.0151,-2.0158,-2.0161,-2.0154,-2.0147,-2.0149,-2.0151,-2.0148,-2.015,-2.0161,-2.0156,-2.0112,-2.0106,-2.0099,-2.0095,-2.0162,-2.0162,-2.0202,-2.0202,-2.0203]}]]